Time,TemperatureF,DewpointF,PressureIn,WindDirection,WindDirectionDegrees,WindSpeedMPH,WindSpeedGustMPH,Humidity,HourlyPrecipIn,Conditions,Clouds,dailyrainin,SolarRadiationWatts/m^2,SoftwareType,DateUTC
2013-01-06 00:00:00,35.2,30.6,30.25,SSW,204,2.0,2.0,83,0.00,,,0.00,0,Wunderground v.1.15,2013-01-06 05:00:00,
2013-01-06 00:04:00,35.3,30.7,30.24,SSW,204,1.0,2.0,83,0.00,,,0.00,0,Wunderground v.1.15,2013-01-06 05:04:00,
2013-01-06 00:09:00,35.5,30.8,30.24,SSW,204,1.0,2.0,83,0.00,,,0.00,0,Wunderground v.1.15,2013-01-06 05:09:00,
2013-01-06 00:14:00,35.6,30.9,30.24,SSW,204,1.0,2.0,83,0.00,,,0.00,0,Wunderground v.1.15,2013-01-06 05:14:00,
2013-01-06 00:20:00,35.8,31.1,30.23,SSW,204,0.0,0.0,83,0.00,,,0.00,0,Wunderground v.1.15,2013-01-06 05:20:00,
2013-01-06 00:26:00,35.9,31.5,30.23,SSW,204,0.0,1.0,84,0.00,,,0.00,0,Wunderground v.1.15,2013-01-06 05:26:00,
2013-01-06 00:32:00,36.0,31.6,30.23,SSW,204,0.0,0.0,84,0.00,,,0.00,0,Wunderground v.1.15,2013-01-06 05:32:00,
2013-01-06 00:38:00,36.1,31.7,30.22,SSW,204,0.0,1.0,84,0.00,,,0.00,0,Wunderground v.1.15,2013-01-06 05:38:00,
2013-01-06 00:44:00,36.2,31.8,30.21,SSW,204,0.0,0.0,84,0.00,,,0.00,0,Wunderground v.1.15,2013-01-06 05:44:00,
2013-01-06 00:50:00,36.2,31.8,30.21,SSW,204,0.0,0.0,84,0.00,,,0.00,0,Wunderground v.1.15,2013-01-06 05:50:00,
2013-01-06 00:56:00,36.2,31.8,30.22,SSW,204,0.0,0.0,84,0.00,,,0.00,0,Wunderground v.1.15,2013-01-06 05:56:00,
2013-01-06 01:02:00,36.1,32.0,30.21,SSW,204,0.0,0.0,85,0.00,,,0.00,0,Wunderground v.1.15,2013-01-06 06:02:00,
2013-01-06 01:08:00,36.1,32.0,30.21,SSW,204,0.0,0.0,85,0.00,,,0.00,0,Wunderground v.1.15,2013-01-06 06:08:00,
2013-01-06 01:13:00,36.1,32.0,30.22,SSW,204,0.0,0.0,85,0.00,,,0.00,0,Wunderground v.1.15,2013-01-06 06:13:00,
2013-01-06 01:20:00,36.2,32.4,30.22,SSW,204,0.0,0.0,86,0.00,,,0.00,0,Wunderground v.1.15,2013-01-06 06:20:00,
2013-01-06 01:26:00,36.3,32.5,30.22,SSW,204,0.0,0.0,86,0.00,,,0.00,0,Wunderground v.1.15,2013-01-06 06:26:00,
2013-01-06 01:32:00,36.4,32.6,30.22,SSW,204,0.0,0.0,86,0.00,,,0.00,0,Wunderground v.1.15,2013-01-06 06:32:00,
2013-01-06 01:38:00,36.3,32.5,30.21,SSW,204,0.0,0.0,86,0.00,,,0.00,0,Wunderground v.1.15,2013-01-06 06:38:00,
2013-01-06 01:44:00,36.3,32.5,30.22,SSW,204,0.0,0.0,86,0.00,,,0.00,0,Wunderground v.1.15,2013-01-06 06:44:00,
2013-01-06 01:50:00,36.1,32.3,30.21,SSW,204,0.0,0.0,86,0.00,,,0.00,0,Wunderground v.1.15,2013-01-06 06:50:00,
2013-01-06 01:56:00,36.0,32.2,30.22,SSW,204,0.0,0.0,86,0.00,,,0.00,0,Wunderground v.1.15,2013-01-06 06:56:00,
2013-01-06 02:02:00,35.9,32.1,30.22,SSW,204,0.0,0.0,86,0.00,,,0.00,0,Wunderground v.1.15,2013-01-06 07:02:00,
2013-01-06 02:08:00,35.7,31.9,30.22,SSW,204,0.0,0.0,86,0.00,,,0.00,0,Wunderground v.1.15,2013-01-06 07:08:00,
2013-01-06 02:14:00,35.7,32.2,30.22,SSW,204,0.0,0.0,87,0.00,,,0.00,0,Wunderground v.1.15,2013-01-06 07:14:00,
2013-01-06 02:20:00,35.6,32.1,30.22,SSW,204,0.0,0.0,87,0.00,,,0.00,0,Wunderground v.1.15,2013-01-06 07:20:00,
2013-01-06 02:26:00,35.6,32.1,30.23,SSW,204,0.0,0.0,87,0.00,,,0.00,0,Wunderground v.1.15,2013-01-06 07:26:00,
2013-01-06 02:32:00,35.5,32.0,30.22,SSW,204,0.0,0.0,87,0.00,,,0.00,0,Wunderground v.1.15,2013-01-06 07:32:00,
2013-01-06 02:37:00,35.5,32.0,30.22,SSW,204,0.0,0.0,87,0.00,,,0.00,0,Wunderground v.1.15,2013-01-06 07:37:00,
2013-01-06 02:44:00,35.4,31.9,30.22,SSW,204,0.0,0.0,87,0.00,,,0.00,0,Wunderground v.1.15,2013-01-06 07:44:00,
2013-01-06 02:50:00,35.4,32.2,30.21,SSW,204,0.0,0.0,88,0.00,,,0.00,0,Wunderground v.1.15,2013-01-06 07:50:00,
2013-01-06 02:56:00,35.4,32.2,30.20,SSW,204,0.0,0.0,88,0.00,,,0.00,0,Wunderground v.1.15,2013-01-06 07:56:00,
2013-01-06 03:02:00,35.4,32.2,30.20,SSW,204,0.0,0.0,88,0.00,,,0.00,0,Wunderground v.1.15,2013-01-06 08:02:00,
2013-01-06 03:08:00,35.4,32.2,30.20,SSW,204,0.0,0.0,88,0.00,,,0.00,0,Wunderground v.1.15,2013-01-06 08:08:00,
2013-01-06 03:14:00,35.4,32.2,30.19,SSW,204,0.0,0.0,88,0.00,,,0.00,0,Wunderground v.1.15,2013-01-06 08:14:00,
2013-01-06 03:20:00,35.4,32.2,30.19,SSW,204,0.0,0.0,88,0.00,,,0.00,0,Wunderground v.1.15,2013-01-06 08:20:00,
2013-01-06 03:26:00,35.4,32.2,30.17,SSW,204,0.0,0.0,88,0.00,,,0.00,0,Wunderground v.1.15,2013-01-06 08:26:00,
2013-01-06 03:32:00,35.4,32.2,30.17,SSW,204,0.0,0.0,88,0.00,,,0.00,0,Wunderground v.1.15,2013-01-06 08:32:00,
2013-01-06 03:38:00,35.4,32.2,30.17,SSW,204,0.0,0.0,88,0.00,,,0.00,0,Wunderground v.1.15,2013-01-06 08:38:00,
2013-01-06 03:44:00,35.4,32.2,30.17,SSW,204,0.0,0.0,88,0.00,,,0.00,0,Wunderground v.1.15,2013-01-06 08:44:00,
2013-01-06 03:50:00,35.3,32.1,30.16,SSW,204,0.0,0.0,88,0.00,,,0.00,0,Wunderground v.1.15,2013-01-06 08:50:00,
2013-01-06 03:56:00,35.3,32.1,30.15,SSW,204,0.0,0.0,88,0.00,,,0.00,0,Wunderground v.1.15,2013-01-06 08:56:00,
2013-01-06 04:02:00,35.4,32.5,30.14,SSW,204,0.0,0.0,89,0.00,,,0.00,0,Wunderground v.1.15,2013-01-06 09:02:00,
2013-01-06 04:08:00,35.4,32.5,30.15,SSW,204,0.0,0.0,89,0.00,,,0.00,0,Wunderground v.1.15,2013-01-06 09:08:00,
2013-01-06 04:14:00,35.5,32.6,30.15,SSW,204,0.0,0.0,89,0.00,,,0.00,0,Wunderground v.1.15,2013-01-06 09:14:00,
2013-01-06 04:20:00,35.5,32.3,30.14,SSW,204,0.0,0.0,88,0.00,,,0.00,0,Wunderground v.1.15,2013-01-06 09:20:00,
2013-01-06 04:26:00,35.6,32.4,30.14,SSW,204,0.0,0.0,88,0.00,,,0.00,0,Wunderground v.1.15,2013-01-06 09:26:00,
2013-01-06 04:32:00,35.6,32.4,30.13,SSW,204,0.0,0.0,88,0.00,,,0.00,0,Wunderground v.1.15,2013-01-06 09:32:00,
2013-01-06 04:38:00,35.6,32.4,30.13,SSW,204,0.0,0.0,88,0.00,,,0.00,0,Wunderground v.1.15,2013-01-06 09:38:00,
2013-01-06 04:44:00,35.7,32.5,30.14,SSW,204,0.0,0.0,88,0.00,,,0.00,0,Wunderground v.1.15,2013-01-06 09:44:00,
2013-01-06 04:50:00,35.7,32.5,30.14,SSW,204,0.0,0.0,88,0.00,,,0.00,0,Wunderground v.1.15,2013-01-06 09:50:00,
2013-01-06 04:56:00,35.6,32.4,30.14,SSW,204,0.0,0.0,88,0.00,,,0.00,0,Wunderground v.1.15,2013-01-06 09:56:00,
2013-01-06 05:02:00,35.7,32.5,30.14,SSW,204,0.0,0.0,88,0.00,,,0.00,0,Wunderground v.1.15,2013-01-06 10:02:00,
2013-01-06 05:08:00,35.7,32.5,30.15,SSW,204,0.0,0.0,88,0.00,,,0.00,0,Wunderground v.1.15,2013-01-06 10:08:00,
2013-01-06 05:14:00,35.8,32.6,30.14,SSW,204,0.0,0.0,88,0.00,,,0.00,0,Wunderground v.1.15,2013-01-06 10:14:00,
2013-01-06 05:19:00,35.7,32.5,30.14,SSW,204,0.0,0.0,88,0.00,,,0.00,0,Wunderground v.1.15,2013-01-06 10:19:00,
2013-01-06 05:26:00,35.8,32.6,30.14,SSW,204,0.0,0.0,88,0.00,,,0.00,0,Wunderground v.1.15,2013-01-06 10:26:00,
2013-01-06 05:32:00,35.8,32.6,30.14,SSW,204,0.0,0.0,88,0.00,,,0.00,0,Wunderground v.1.15,2013-01-06 10:32:00,
2013-01-06 05:38:00,35.8,32.6,30.14,SSW,204,0.0,0.0,88,0.00,,,0.00,0,Wunderground v.1.15,2013-01-06 10:38:00,
2013-01-06 05:43:00,35.8,32.6,30.14,SSW,204,0.0,0.0,88,0.00,,,0.00,0,Wunderground v.1.15,2013-01-06 10:43:00,
2013-01-06 05:50:00,35.8,32.6,30.14,SSW,204,0.0,0.0,88,0.00,,,0.00,0,Wunderground v.1.15,2013-01-06 10:50:00,
2013-01-06 05:56:00,35.7,32.5,30.14,SSW,204,0.0,0.0,88,0.00,,,0.00,0,Wunderground v.1.15,2013-01-06 10:56:00,
2013-01-06 06:02:00,35.7,32.5,30.13,SSW,204,0.0,0.0,88,0.00,,,0.00,0,Wunderground v.1.15,2013-01-06 11:02:00,
2013-01-06 06:08:00,35.7,32.5,30.13,SSW,204,0.0,0.0,88,0.00,,,0.00,0,Wunderground v.1.15,2013-01-06 11:08:00,
2013-01-06 06:13:00,35.6,32.4,30.13,SSW,204,0.0,0.0,88,0.00,,,0.00,0,Wunderground v.1.15,2013-01-06 11:13:00,
2013-01-06 06:20:00,35.6,32.4,30.13,SSW,204,0.0,0.0,88,0.00,,,0.00,0,Wunderground v.1.15,2013-01-06 11:20:00,
2013-01-06 06:26:00,35.5,32.3,30.14,SSW,204,0.0,0.0,88,0.00,,,0.00,0,Wunderground v.1.15,2013-01-06 11:26:00,
2013-01-06 06:32:00,35.6,32.4,30.14,SSW,204,0.0,0.0,88,0.00,,,0.00,0,Wunderground v.1.15,2013-01-06 11:32:00,
2013-01-06 06:38:00,35.8,32.6,30.14,SSW,204,0.0,0.0,88,0.00,,,0.00,0,Wunderground v.1.15,2013-01-06 11:38:00,
2013-01-06 06:44:00,35.8,32.9,30.14,SSW,204,0.0,0.0,89,0.00,,,0.00,0,Wunderground v.1.15,2013-01-06 11:44:00,
2013-01-06 06:50:00,35.9,32.7,30.13,SSW,204,0.0,0.0,88,0.00,,,0.00,0,Wunderground v.1.15,2013-01-06 11:50:00,
2013-01-06 06:56:00,35.8,32.6,30.13,SSW,204,0.0,0.0,88,0.00,,,0.00,0,Wunderground v.1.15,2013-01-06 11:56:00,
2013-01-06 07:02:00,35.7,32.5,30.13,SSW,204,0.0,0.0,88,0.00,,,0.00,0,Wunderground v.1.15,2013-01-06 12:02:00,
2013-01-06 07:08:00,35.6,32.4,30.13,SSW,204,0.0,0.0,88,0.00,,,0.00,0,Wunderground v.1.15,2013-01-06 12:08:00,
2013-01-06 07:13:00,35.5,32.3,30.13,SSW,204,0.0,0.0,88,0.00,,,0.00,0,Wunderground v.1.15,2013-01-06 12:13:00,
2013-01-06 07:20:00,35.3,32.1,30.13,SSW,204,0.0,0.0,88,0.00,,,0.00,0,Wunderground v.1.15,2013-01-06 12:20:00,
2013-01-06 07:25:00,35.2,32.0,30.13,SSW,204,0.0,0.0,88,0.00,,,0.00,0,Wunderground v.1.15,2013-01-06 12:25:00,
2013-01-06 07:32:00,35.2,32.0,30.13,SSW,204,0.0,0.0,88,0.00,,,0.00,5,Wunderground v.1.15,2013-01-06 12:32:00,
2013-01-06 07:37:00,35.1,32.2,30.14,SSW,204,0.0,0.0,89,0.00,,,0.00,5,Wunderground v.1.15,2013-01-06 12:37:00,
2013-01-06 07:44:00,35.1,31.9,30.13,SSW,204,0.0,0.0,88,0.00,,,0.00,7,Wunderground v.1.15,2013-01-06 12:44:00,
2013-01-06 07:49:00,35.1,32.2,30.13,SSW,204,0.0,0.0,89,0.00,,,0.00,11,Wunderground v.1.15,2013-01-06 12:49:00,
2013-01-06 07:56:00,35.1,32.2,30.13,SSW,204,0.0,0.0,89,0.00,,,0.00,12,Wunderground v.1.15,2013-01-06 12:56:00,
2013-01-06 08:02:00,35.1,32.2,30.13,SSW,204,0.0,0.0,89,0.00,,,0.00,18,Wunderground v.1.15,2013-01-06 13:02:00,
2013-01-06 08:08:00,35.1,32.5,30.13,SSW,204,0.0,0.0,90,0.00,,,0.00,21,Wunderground v.1.15,2013-01-06 13:08:00,
2013-01-06 08:14:00,35.2,32.6,30.13,SSW,204,0.0,0.0,90,0.00,,,0.00,26,Wunderground v.1.15,2013-01-06 13:14:00,
2013-01-06 08:20:00,35.3,32.7,30.13,SSW,204,0.0,0.0,90,0.00,,,0.00,33,Wunderground v.1.15,2013-01-06 13:20:00,
2013-01-06 08:26:00,35.4,32.8,30.13,SSW,204,0.0,0.0,90,0.00,,,0.00,33,Wunderground v.1.15,2013-01-06 13:26:00,
2013-01-06 08:32:00,35.5,32.9,30.13,SSW,204,0.0,0.0,90,0.00,,,0.00,53,Wunderground v.1.15,2013-01-06 13:32:00,
2013-01-06 08:38:00,35.9,33.5,30.13,SSW,204,0.0,2.0,91,0.00,,,0.00,97,Wunderground v.1.15,2013-01-06 13:38:00,
2013-01-06 08:44:00,36.3,33.9,30.13,SSW,204,1.0,1.0,91,0.00,,,0.00,86,Wunderground v.1.15,2013-01-06 13:44:00,
2013-01-06 08:50:00,36.9,34.5,30.13,SSW,204,1.0,4.0,91,0.00,,,0.00,135,Wunderground v.1.15,2013-01-06 13:50:00,
2013-01-06 08:55:00,37.5,34.8,30.13,WSW,252,2.0,5.0,90,0.00,,,0.00,120,Wunderground v.1.15,2013-01-06 13:55:00,
2013-01-06 09:02:00,38.3,35.3,30.13,WSW,256,3.0,4.0,89,0.00,,,0.00,65,Wunderground v.1.15,2013-01-06 14:02:00,
2013-01-06 09:08:00,38.9,35.6,30.13,SSW,210,3.0,7.0,88,0.00,,,0.00,102,Wunderground v.1.15,2013-01-06 14:08:00,
2013-01-06 09:14:00,39.5,36.0,30.13,WSW,238,4.0,5.0,87,0.00,,,0.00,102,Wunderground v.1.15,2013-01-06 14:14:00,
2013-01-06 09:20:00,40.0,36.2,30.13,West,267,5.0,5.0,86,0.00,,,0.00,54,Wunderground v.1.15,2013-01-06 14:20:00,
2013-01-06 09:26:00,40.4,36.2,30.13,West,261,5.0,5.0,85,0.00,,,0.00,130,Wunderground v.1.15,2013-01-06 14:26:00,
2013-01-06 09:32:00,40.8,36.3,30.13,WSW,246,5.0,6.0,84,0.00,,,0.00,102,Wunderground v.1.15,2013-01-06 14:32:00,
2013-01-06 09:37:00,41.0,36.5,30.13,SW,228,5.0,6.0,84,0.00,,,0.00,181,Wunderground v.1.15,2013-01-06 14:37:00,
2013-01-06 09:44:00,41.2,36.7,30.13,WSW,246,5.0,7.0,84,0.00,,,0.00,239,Wunderground v.1.15,2013-01-06 14:44:00,
2013-01-06 09:49:00,41.4,36.9,30.14,SW,220,5.0,5.0,84,0.00,,,0.00,155,Wunderground v.1.15,2013-01-06 14:49:00,
2013-01-06 09:56:00,41.5,36.7,30.14,South,190,5.0,5.0,83,0.00,,,0.00,181,Wunderground v.1.15,2013-01-06 14:56:00,
2013-01-06 10:02:00,41.8,37.0,30.13,WNW,300,4.0,10.0,83,0.00,,,0.00,237,Wunderground v.1.15,2013-01-06 15:02:00,
2013-01-06 10:07:00,42.1,37.0,30.13,SW,229,5.0,10.0,82,0.00,,,0.00,199,Wunderground v.1.15,2013-01-06 15:07:00,
2013-01-06 10:14:00,42.3,36.9,30.13,SSW,199,6.0,8.0,81,0.00,,,0.00,322,Wunderground v.1.15,2013-01-06 15:14:00,
2013-01-06 10:19:00,42.5,36.8,30.13,SW,219,6.0,6.0,80,0.00,,,0.00,345,Wunderground v.1.15,2013-01-06 15:19:00,
2013-01-06 10:26:00,42.8,37.1,30.13,SSW,193,5.0,7.0,80,0.00,,,0.00,332,Wunderground v.1.15,2013-01-06 15:26:00,
2013-01-06 10:31:00,43.0,36.6,30.12,WNW,291,5.0,8.0,78,0.00,,,0.00,225,Wunderground v.1.15,2013-01-06 15:31:00,
2013-01-06 10:38:00,43.1,36.4,30.13,SW,234,5.0,8.0,77,0.00,,,0.00,236,Wunderground v.1.15,2013-01-06 15:38:00,
2013-01-06 10:43:00,43.2,36.5,30.12,South,185,4.0,5.0,77,0.00,,,0.00,197,Wunderground v.1.15,2013-01-06 15:43:00,
2013-01-06 10:50:00,43.2,36.1,30.11,WNW,300,4.0,6.0,76,0.00,,,0.00,141,Wunderground v.1.15,2013-01-06 15:50:00,
2013-01-06 10:56:00,43.0,36.0,30.11,SW,230,5.0,6.0,76,0.00,,,0.00,144,Wunderground v.1.15,2013-01-06 15:56:00,
2013-01-06 11:02:00,42.8,36.1,30.10,WSW,247,5.0,8.0,77,0.00,,,0.00,234,Wunderground v.1.15,2013-01-06 16:02:00,
2013-01-06 11:08:00,42.9,36.5,30.10,WSW,256,5.0,8.0,78,0.00,,,0.00,151,Wunderground v.1.15,2013-01-06 16:08:00,
2013-01-06 11:14:00,43.1,36.7,30.09,SW,224,5.0,8.0,78,0.00,,,0.00,148,Wunderground v.1.15,2013-01-06 16:14:00,
2013-01-06 11:20:00,43.3,36.9,30.09,WSW,239,4.0,6.0,78,0.00,,,0.00,373,Wunderground v.1.15,2013-01-06 16:20:00,
2013-01-06 11:26:00,43.7,36.6,30.09,WSW,256,4.0,6.0,76,0.00,,,0.00,193,Wunderground v.1.15,2013-01-06 16:26:00,
2013-01-06 11:32:00,43.9,35.8,30.08,WSW,248,4.0,5.0,73,0.00,,,0.00,109,Wunderground v.1.15,2013-01-06 16:32:00,
2013-01-06 11:37:00,44.1,35.3,30.08,WSW,254,4.0,5.0,71,0.00,,,0.00,209,Wunderground v.1.15,2013-01-06 16:37:00,
2013-01-06 11:44:00,44.4,35.2,30.07,NW,306,3.0,3.0,70,0.00,,,0.00,244,Wunderground v.1.15,2013-01-06 16:44:00,
2013-01-06 11:50:00,44.6,35.1,30.07,WSW,253,3.0,3.0,69,0.00,,,0.00,316,Wunderground v.1.15,2013-01-06 16:50:00,
2013-01-06 11:56:00,44.9,34.6,30.07,WSW,253,3.0,4.0,67,0.00,,,0.00,315,Wunderground v.1.15,2013-01-06 16:56:00,
2013-01-06 12:02:00,45.4,33.9,30.06,West,273,4.0,7.0,64,0.00,,,0.00,146,Wunderground v.1.15,2013-01-06 17:02:00,
2013-01-06 12:08:00,45.8,33.1,30.06,WSW,241,4.0,7.0,61,0.00,,,0.00,98,Wunderground v.1.15,2013-01-06 17:08:00,
2013-01-06 12:14:00,46.1,33.8,30.06,WSW,257,3.0,4.0,62,0.00,,,0.00,218,Wunderground v.1.15,2013-01-06 17:14:00,
2013-01-06 12:19:00,46.6,33.4,30.05,WNW,296,3.0,9.0,60,0.00,,,0.00,206,Wunderground v.1.15,2013-01-06 17:19:00,
2013-01-06 12:26:00,46.9,32.4,30.05,NW,317,4.0,9.0,57,0.00,,,0.00,172,Wunderground v.1.15,2013-01-06 17:26:00,
2013-01-06 12:32:00,47.1,32.6,30.04,West,281,4.0,5.0,57,0.00,,,0.00,93,Wunderground v.1.15,2013-01-06 17:32:00,
2013-01-06 12:38:00,47.0,31.2,30.04,WNW,284,5.0,6.0,54,0.00,,,0.00,142,Wunderground v.1.15,2013-01-06 17:38:00,
2013-01-06 12:44:00,47.1,31.7,30.04,West,264,4.0,6.0,55,0.00,,,0.00,141,Wunderground v.1.15,2013-01-06 17:44:00,
2013-01-06 12:49:00,47.2,36.0,30.04,South,181,5.0,5.0,65,0.00,,,0.00,114,Wunderground v.1.15,2013-01-06 17:49:00,
2013-01-06 12:56:00,46.9,36.5,30.04,South,188,5.0,5.0,67,0.00,,,0.00,60,Wunderground v.1.15,2013-01-06 17:56:00,
2013-01-06 13:02:00,46.7,36.7,30.03,SSW,196,4.0,6.0,68,0.00,,,0.00,63,Wunderground v.1.15,2013-01-06 18:02:00,
2013-01-06 13:08:00,46.7,35.6,30.03,SSW,213,5.0,6.0,65,0.00,,,0.00,76,Wunderground v.1.15,2013-01-06 18:08:00,
2013-01-06 13:14:00,47.0,35.4,30.03,SSW,211,5.0,5.0,64,0.00,,,0.00,95,Wunderground v.1.15,2013-01-06 18:14:00,
2013-01-06 13:20:00,47.4,34.2,30.02,WSW,244,4.0,6.0,60,0.00,,,0.00,246,Wunderground v.1.15,2013-01-06 18:20:00,
2013-01-06 13:26:00,47.7,33.2,30.02,WSW,247,4.0,6.0,57,0.00,,,0.00,88,Wunderground v.1.15,2013-01-06 18:26:00,
2013-01-06 13:32:00,47.9,32.0,30.02,WNW,284,4.0,5.0,54,0.00,,,0.00,137,Wunderground v.1.15,2013-01-06 18:32:00,
2013-01-06 13:38:00,48.0,30.2,30.02,WNW,302,4.0,5.0,50,0.00,,,0.00,46,Wunderground v.1.15,2013-01-06 18:38:00,
2013-01-06 13:44:00,48.0,30.2,30.02,West,275,4.0,4.0,50,0.00,,,0.00,109,Wunderground v.1.15,2013-01-06 18:44:00,
2013-01-06 13:50:00,48.2,29.9,30.01,West,277,4.0,5.0,49,0.00,,,0.00,69,Wunderground v.1.15,2013-01-06 18:50:00,
2013-01-06 13:56:00,48.5,30.2,30.02,WNW,296,5.0,8.0,49,0.00,,,0.00,35,Wunderground v.1.15,2013-01-06 18:56:00,
2013-01-06 14:02:00,48.6,30.3,30.01,WNW,294,5.0,6.0,49,0.00,,,0.00,63,Wunderground v.1.15,2013-01-06 19:02:00,
2013-01-06 14:08:00,48.7,31.4,30.01,WSW,240,5.0,8.0,51,0.00,,,0.00,37,Wunderground v.1.15,2013-01-06 19:08:00,
2013-01-06 14:14:00,48.9,31.1,30.02,West,265,5.0,5.0,50,0.00,,,0.00,113,Wunderground v.1.15,2013-01-06 19:14:00,
2013-01-06 14:20:00,49.1,31.2,30.02,West,269,4.0,6.0,50,0.00,,,0.00,132,Wunderground v.1.15,2013-01-06 19:20:00,
2013-01-06 14:26:00,49.0,31.6,30.01,WNW,298,5.0,9.0,51,0.00,,,0.00,116,Wunderground v.1.15,2013-01-06 19:26:00,
2013-01-06 14:32:00,48.9,31.1,30.01,West,269,6.0,6.0,50,0.00,,,0.00,116,Wunderground v.1.15,2013-01-06 19:32:00,
2013-01-06 14:38:00,48.8,31.0,30.02,WNW,284,6.0,10.0,50,0.00,,,0.00,162,Wunderground v.1.15,2013-01-06 19:38:00,
2013-01-06 14:46:00,48.6,30.8,30.01,WSW,247,6.0,7.0,50,0.00,,,0.00,74,Wunderground v.1.15,2013-01-06 19:46:00,
2013-01-06 14:54:00,48.6,30.8,30.01,WNW,300,5.0,6.0,50,0.00,,,0.00,40,Wunderground v.1.15,2013-01-06 19:54:00,
2013-01-06 15:00:00,48.6,31.3,30.01,WNW,294,4.0,4.0,51,0.00,,,0.00,97,Wunderground v.1.15,2013-01-06 20:00:00,
2013-01-06 15:06:00,48.6,31.3,30.01,NW,314,4.0,4.0,51,0.00,,,0.00,84,Wunderground v.1.15,2013-01-06 20:06:00,
2013-01-06 15:12:00,48.6,30.8,30.01,West,275,4.0,4.0,50,0.00,,,0.00,79,Wunderground v.1.15,2013-01-06 20:12:00,
2013-01-06 15:16:00,48.7,31.4,30.01,WNW,285,3.0,4.0,51,0.00,,,0.00,81,Wunderground v.1.15,2013-01-06 20:16:00,
2013-01-06 15:22:00,48.8,31.5,30.01,SW,232,4.0,6.0,51,0.00,,,0.00,37,Wunderground v.1.15,2013-01-06 20:22:00,
2013-01-06 15:28:00,48.7,30.9,30.01,West,259,5.0,6.0,50,0.00,,,0.00,105,Wunderground v.1.15,2013-01-06 20:28:00,
2013-01-06 15:34:00,48.5,31.2,30.01,WSW,257,5.0,5.0,51,0.00,,,0.00,72,Wunderground v.1.15,2013-01-06 20:34:00,
2013-01-06 15:40:00,48.5,31.2,30.01,SW,234,4.0,4.0,51,0.00,,,0.00,51,Wunderground v.1.15,2013-01-06 20:40:00,
2013-01-06 15:46:00,48.6,31.3,30.01,WSW,250,3.0,7.0,51,0.00,,,0.00,54,Wunderground v.1.15,2013-01-06 20:46:00,
2013-01-06 15:52:00,48.6,31.3,30.01,West,280,3.0,3.0,51,0.00,,,0.00,49,Wunderground v.1.15,2013-01-06 20:52:00,
2013-01-06 15:58:00,48.6,32.2,30.01,WSW,248,2.0,4.0,53,0.00,,,0.00,39,Wunderground v.1.15,2013-01-06 20:58:00,
2013-01-06 16:04:00,48.4,32.5,30.01,WSW,241,2.0,5.0,54,0.00,,,0.00,32,Wunderground v.1.15,2013-01-06 21:04:00,
2013-01-06 16:10:00,48.2,33.7,30.01,WSW,238,1.0,1.0,57,0.00,,,0.00,25,Wunderground v.1.15,2013-01-06 21:10:00,
2013-01-06 16:12:00,48.1,33.6,30.00,WSW,238,1.0,1.0,57,0.00,,,0.00,25,Wunderground v.1.15,2013-01-06 21:12:00,
2013-01-06 16:18:00,47.7,33.6,30.01,WSW,238,1.0,2.0,58,0.00,,,0.00,21,Wunderground v.1.15,2013-01-06 21:18:00,
2013-01-06 16:24:00,47.2,33.6,30.01,WSW,238,1.0,1.0,59,0.00,,,0.00,18,Wunderground v.1.15,2013-01-06 21:24:00,
2013-01-06 16:30:00,46.6,33.0,30.01,WSW,238,0.0,0.0,59,0.00,,,0.00,16,Wunderground v.1.15,2013-01-06 21:30:00,
2013-01-06 16:36:00,46.1,33.0,30.01,WSW,238,0.0,1.0,60,0.00,,,0.00,12,Wunderground v.1.15,2013-01-06 21:36:00,
2013-01-06 16:42:00,45.4,33.1,30.01,WSW,238,0.0,0.0,62,0.00,,,0.00,9,Wunderground v.1.15,2013-01-06 21:42:00,
2013-01-06 16:48:00,44.7,32.9,30.01,WSW,238,0.0,0.0,63,0.00,,,0.00,5,Wunderground v.1.15,2013-01-06 21:48:00,
2013-01-06 16:54:00,43.9,32.5,30.01,WSW,238,0.0,0.0,64,0.00,,,0.00,0,Wunderground v.1.15,2013-01-06 21:54:00,
2013-01-06 17:00:00,43.2,32.6,30.01,WSW,238,0.0,0.0,66,0.00,,,0.00,0,Wunderground v.1.15,2013-01-06 22:00:00,
2013-01-06 17:06:00,42.7,32.5,30.01,WSW,238,0.0,0.0,67,0.00,,,0.00,0,Wunderground v.1.15,2013-01-06 22:06:00,
2013-01-06 17:12:00,42.1,32.7,30.01,WSW,238,0.0,0.0,69,0.00,,,0.00,0,Wunderground v.1.15,2013-01-06 22:12:00,
2013-01-06 17:18:00,41.7,32.6,30.01,WSW,238,0.0,0.0,70,0.00,,,0.00,0,Wunderground v.1.15,2013-01-06 22:18:00,
2013-01-06 17:24:00,41.3,32.6,30.02,WSW,238,0.0,0.0,71,0.00,,,0.00,0,Wunderground v.1.15,2013-01-06 22:24:00,
2013-01-06 17:30:00,40.9,31.9,30.02,WSW,238,0.0,0.0,70,0.00,,,0.00,0,Wunderground v.1.15,2013-01-06 22:30:00,
2013-01-06 17:36:00,40.5,31.8,30.02,WSW,238,0.0,0.0,71,0.00,,,0.00,0,Wunderground v.1.15,2013-01-06 22:36:00,
2013-01-06 17:42:00,40.1,31.8,30.02,WSW,238,0.0,0.0,72,0.00,,,0.00,0,Wunderground v.1.15,2013-01-06 22:42:00,
2013-01-06 17:48:00,39.6,32.0,30.02,WSW,238,0.0,1.0,74,0.00,,,0.00,0,Wunderground v.1.15,2013-01-06 22:48:00,
2013-01-06 17:54:00,39.2,31.9,30.02,WSW,238,0.0,0.0,75,0.00,,,0.00,0,Wunderground v.1.15,2013-01-06 22:54:00,
2013-01-06 18:00:00,38.8,32.2,30.02,WSW,238,0.0,0.0,77,0.00,,,0.00,0,Wunderground v.1.15,2013-01-06 23:00:00,
2013-01-06 18:06:00,38.6,32.3,30.03,WSW,238,0.0,0.0,78,0.00,,,0.00,0,Wunderground v.1.15,2013-01-06 23:06:00,
2013-01-06 18:12:00,38.4,32.5,30.03,WSW,238,1.0,2.0,79,0.00,,,0.00,0,Wunderground v.1.15,2013-01-06 23:12:00,
2013-01-06 18:18:00,38.3,32.7,30.03,WSW,238,1.0,2.0,80,0.00,,,0.00,0,Wunderground v.1.15,2013-01-06 23:18:00,
2013-01-06 18:24:00,38.2,32.6,30.03,WSW,238,0.0,1.0,80,0.00,,,0.00,0,Wunderground v.1.15,2013-01-06 23:24:00,
2013-01-06 18:30:00,38.2,32.9,30.03,WSW,238,0.0,0.0,81,0.00,,,0.00,0,Wunderground v.1.15,2013-01-06 23:30:00,
2013-01-06 18:36:00,38.2,33.2,30.03,WSW,238,0.0,1.0,82,0.00,,,0.00,0,Wunderground v.1.15,2013-01-06 23:36:00,
2013-01-06 18:42:00,38.3,33.6,30.04,WSW,238,0.0,0.0,83,0.00,,,0.00,0,Wunderground v.1.15,2013-01-06 23:42:00,
2013-01-06 18:48:00,38.3,33.9,30.04,WSW,238,0.0,2.0,84,0.00,,,0.00,0,Wunderground v.1.15,2013-01-06 23:48:00,
2013-01-06 18:54:00,38.4,34.3,30.04,WSW,238,0.0,0.0,85,0.00,,,0.00,0,Wunderground v.1.15,2013-01-06 23:54:00,
2013-01-06 19:00:00,38.4,34.6,30.04,WSW,238,0.0,0.0,86,0.00,,,0.00,0,Wunderground v.1.15,2013-01-07 00:00:00,
2013-01-06 19:06:00,38.2,34.1,30.04,WSW,238,0.0,0.0,85,0.00,,,0.00,0,Wunderground v.1.15,2013-01-07 00:06:00,
2013-01-06 19:12:00,38.0,33.6,30.04,WSW,238,0.0,0.0,84,0.00,,,0.00,0,Wunderground v.1.15,2013-01-07 00:12:00,
2013-01-06 19:18:00,37.7,33.3,30.04,WSW,238,0.0,0.0,84,0.00,,,0.00,0,Wunderground v.1.15,2013-01-07 00:18:00,
2013-01-06 19:24:00,37.5,33.1,30.04,WSW,238,0.0,0.0,84,0.00,,,0.00,0,Wunderground v.1.15,2013-01-07 00:24:00,
2013-01-06 19:30:00,37.3,32.9,30.04,WSW,238,0.0,0.0,84,0.00,,,0.00,0,Wunderground v.1.15,2013-01-07 00:30:00,
2013-01-06 19:36:00,37.0,32.6,30.05,WSW,238,0.0,0.0,84,0.00,,,0.00,0,Wunderground v.1.15,2013-01-07 00:36:00,
2013-01-06 19:42:00,36.7,32.3,30.05,WSW,238,0.0,0.0,84,0.00,,,0.00,0,Wunderground v.1.15,2013-01-07 00:42:00,
2013-01-06 19:48:00,36.4,32.0,30.04,WSW,238,0.0,0.0,84,0.00,,,0.00,0,Wunderground v.1.15,2013-01-07 00:48:00,
2013-01-06 19:54:00,36.0,31.6,30.04,WSW,238,0.0,0.0,84,0.00,,,0.00,0,Wunderground v.1.15,2013-01-07 00:54:00,
2013-01-06 20:00:00,35.9,32.1,30.04,WSW,238,0.0,0.0,86,0.00,,,0.00,0,Wunderground v.1.15,2013-01-07 01:00:00,
2013-01-06 20:06:00,35.6,31.8,30.05,WSW,238,0.0,0.0,86,0.00,,,0.00,0,Wunderground v.1.15,2013-01-07 01:06:00,
2013-01-06 20:12:00,35.5,31.7,30.05,WSW,238,0.0,0.0,86,0.00,,,0.00,0,Wunderground v.1.15,2013-01-07 01:12:00,
2013-01-06 20:18:00,35.3,31.8,30.04,WSW,238,0.0,0.0,87,0.00,,,0.00,0,Wunderground v.1.15,2013-01-07 01:18:00,
2013-01-06 20:24:00,35.1,31.9,30.05,WSW,238,0.0,0.0,88,0.00,,,0.00,0,Wunderground v.1.15,2013-01-07 01:24:00,
2013-01-06 20:30:00,35.0,31.8,30.05,WSW,238,0.0,0.0,88,0.00,,,0.00,0,Wunderground v.1.15,2013-01-07 01:30:00,
2013-01-06 20:36:00,34.8,31.6,30.05,WSW,238,0.0,0.0,88,0.00,,,0.00,0,Wunderground v.1.15,2013-01-07 01:36:00,
2013-01-06 20:42:00,34.7,31.5,30.05,WSW,238,0.0,0.0,88,0.00,,,0.00,0,Wunderground v.1.15,2013-01-07 01:42:00,
2013-01-06 20:48:00,34.6,31.4,30.05,WSW,238,0.0,0.0,88,0.00,,,0.00,0,Wunderground v.1.15,2013-01-07 01:48:00,
2013-01-06 20:54:00,34.5,31.6,30.05,WSW,238,0.0,0.0,89,0.00,,,0.00,0,Wunderground v.1.15,2013-01-07 01:54:00,
2013-01-06 21:00:00,34.5,31.6,30.05,WSW,238,0.0,0.0,89,0.00,,,0.00,0,Wunderground v.1.15,2013-01-07 02:00:00,
2013-01-06 21:06:00,34.5,31.6,30.05,WSW,238,0.0,0.0,89,0.00,,,0.00,0,Wunderground v.1.15,2013-01-07 02:06:00,
2013-01-06 21:12:00,34.6,32.0,30.05,WSW,238,0.0,0.0,90,0.00,,,0.00,0,Wunderground v.1.15,2013-01-07 02:12:00,
2013-01-06 21:18:00,34.6,32.0,30.06,WSW,238,0.0,0.0,90,0.00,,,0.00,0,Wunderground v.1.15,2013-01-07 02:18:00,
2013-01-06 21:24:00,34.6,32.0,30.06,WSW,238,0.0,0.0,90,0.00,,,0.00,0,Wunderground v.1.15,2013-01-07 02:24:00,
2013-01-06 21:30:00,34.7,32.1,30.06,WSW,238,0.0,0.0,90,0.00,,,0.00,0,Wunderground v.1.15,2013-01-07 02:30:00,
2013-01-06 21:36:00,34.8,32.2,30.06,WSW,238,0.0,0.0,90,0.00,,,0.00,0,Wunderground v.1.15,2013-01-07 02:36:00,
2013-01-06 21:42:00,34.9,32.3,30.06,WSW,238,0.0,0.0,90,0.00,,,0.00,0,Wunderground v.1.15,2013-01-07 02:42:00,
2013-01-06 21:48:00,35.0,32.4,30.06,WSW,238,0.0,0.0,90,0.00,,,0.00,0,Wunderground v.1.15,2013-01-07 02:48:00,
2013-01-06 21:54:00,35.1,32.7,30.06,WSW,238,0.0,0.0,91,0.00,,,0.00,0,Wunderground v.1.15,2013-01-07 02:54:00,
2013-01-06 22:00:00,35.2,32.8,30.06,WSW,238,0.0,0.0,91,0.00,,,0.00,0,Wunderground v.1.15,2013-01-07 03:00:00,
2013-01-06 22:06:00,35.3,32.9,30.06,WSW,238,0.0,0.0,91,0.00,,,0.00,0,Wunderground v.1.15,2013-01-07 03:06:00,
2013-01-06 22:12:00,35.5,33.1,30.06,WSW,238,0.0,0.0,91,0.00,,,0.00,0,Wunderground v.1.15,2013-01-07 03:12:00,
2013-01-06 22:18:00,35.6,33.2,30.06,WSW,238,0.0,0.0,91,0.00,,,0.00,0,Wunderground v.1.15,2013-01-07 03:18:00,
2013-01-06 22:24:00,35.7,33.3,30.06,WSW,238,0.0,0.0,91,0.00,,,0.00,0,Wunderground v.1.15,2013-01-07 03:24:00,
2013-01-06 22:30:00,35.8,33.4,30.06,WSW,238,0.0,0.0,91,0.00,,,0.00,0,Wunderground v.1.15,2013-01-07 03:30:00,
2013-01-06 22:36:00,36.1,33.7,30.07,WSW,238,0.0,0.0,91,0.00,,,0.00,0,Wunderground v.1.15,2013-01-07 03:36:00,
2013-01-06 22:42:00,36.6,34.2,30.07,WSW,238,0.0,0.0,91,0.00,,,0.00,0,Wunderground v.1.15,2013-01-07 03:42:00,
2013-01-06 22:48:00,37.2,34.5,30.07,WSW,239,0.0,2.0,90,0.00,,,0.00,0,Wunderground v.1.15,2013-01-07 03:48:00,
2013-01-06 22:54:00,37.9,34.4,30.07,West,279,1.0,2.0,87,0.00,,,0.00,0,Wunderground v.1.15,2013-01-07 03:54:00,
2013-01-06 23:00:00,38.6,34.2,30.07,WNW,284,1.0,2.0,84,0.00,,,0.00,0,Wunderground v.1.15,2013-01-07 04:00:00,
2013-01-06 23:06:00,39.2,34.2,30.07,WNW,284,1.0,2.0,82,0.00,,,0.00,0,Wunderground v.1.15,2013-01-07 04:06:00,
2013-01-06 23:12:00,39.8,33.8,30.07,WNW,289,2.0,3.0,79,0.00,,,0.00,0,Wunderground v.1.15,2013-01-07 04:12:00,
2013-01-06 23:18:00,40.4,33.8,30.08,West,273,3.0,3.0,77,0.00,,,0.00,0,Wunderground v.1.15,2013-01-07 04:18:00,
2013-01-06 23:24:00,40.8,33.8,30.08,WNW,302,3.0,4.0,76,0.00,,,0.00,0,Wunderground v.1.15,2013-01-07 04:24:00,
2013-01-06 23:30:00,41.0,33.7,30.08,WNW,286,3.0,3.0,75,0.00,,,0.00,0,Wunderground v.1.15,2013-01-07 04:30:00,
2013-01-06 23:36:00,41.2,33.9,30.08,WNW,285,3.0,4.0,75,0.00,,,0.00,0,Wunderground v.1.15,2013-01-07 04:36:00,
2013-01-06 23:42:00,41.4,33.7,30.08,WNW,303,4.0,4.0,74,0.00,,,0.00,0,Wunderground v.1.15,2013-01-07 04:42:00,
2013-01-06 23:48:00,41.6,33.6,30.08,WNW,286,4.0,4.0,73,0.00,,,0.00,0,Wunderground v.1.15,2013-01-07 04:48:00,
2013-01-06 23:54:00,41.8,33.4,30.08,WNW,287,4.0,6.0,72,0.00,,,0.00,0,Wunderground v.1.15,2013-01-07 04:54:00,